Tracking 20093 objects as of 16-Dec-2019
HD Live streaming from Space Station
objects crossing your sky now

SL-16 R/B

Track SL-16 R/B now!
10-day predictions
SL-16 R/B is classified as:


NORAD ID: 23705
Int'l Code: 1995-058B
Perigee: 839.4 km
Apogee: 858.6 km
Inclination: 71.0 °
Period: 101.8 minutes
Semi major axis: 7219 km
RCS: 9.8957 m2 (large)
Launch date: October 31, 1995
Source: Commonwealth of Independent States (former USSR) (CIS)
Launch site: TYURATAM MISSILE AND SPACE COMPLEX (TTMTR)

Note: This is a ROCKET BODY
aabbcc
Your satellite tracking list
Your tracking list is empty




NASA's NSSDC Master Catalog

Two Line Element Set (TLE):
1 23705U 95058B   19349.81473386 -.00000175  00000-0 -65431-4 0  9998
2 23705  71.0232 276.3469 0013351 337.8800  22.1745 14.15132678246150
Source of the keplerian elements: AFSPC